FW6165 Weather Reports


time (UTC)temp
C
wind
direction
speed
KPH
gust
KPH
rain 1hr
cm
rain 24hr
cm
rain mn
cm
humidity
%
barometer
mb
20260507140038 12 58 0.0 3.2 0.00 0.53 0.18 69 1012.2
20260507135007 12 37 0.0 3.2 0.00 0.56 0.18 74 1012.2
20260507134006 12 23 0.0 1.6 0.00 0.56 0.18 76 1012.2
20260507133005 12 359 1.6 4.8 0.00 0.56 0.18 77 1012.2
20260507132004 12 71 0.0 6.4 0.00 0.56 0.18 77 1011.9
20260507131004 12 39 0.0 1.6 0.00 0.56 0.18 81 1011.9
20260507130003 12 26 0.0 0.0 0.00 0.56 0.18 84 1012.2
20260507125003 12 26 0.0 0.0 0.00 0.56 0.18 83 1012.2
20260507124002 12 26 0.0 0.0 0.00 0.56 0.18 83 1012.2
20260507123001 12 26 0.0 0.0 0.00 0.56 0.18 80 1012.2
20260507122000 12 27 0.0 0.0 0.00 0.56 0.18 79 1011.9
20260507120959 12 26 0.0 0.0 0.00 0.56 0.18 78 1012.2
20260507115856 12 26 0.0 1.6 0.00 0.56 0.18 79 1011.9
20260507114856 12 26 0.0 1.6 0.00 0.56 0.18 82 1011.5
20260507113855 12 92 0.0 1.6 0.00 0.56 0.18 84 1011.9
20260507112855 11 76 0.0 1.6 0.00 0.56 0.18 85 1011.5
20260507111854 11 26 0.0 1.6 0.00 0.56 0.18 87 1011.5
20260507110853 11 26 0.0 0.0 0.00 0.56 0.18 89 1011.9
20260507105853 11 26 0.0 0.0 0.00 0.56 0.18 89 1011.5
20260507104852 11 26 0.0 0.0 0.00 0.56 0.18 89 1011.2
20260507103820 11 26 0.0 1.6 0.00 0.56 0.18 89 1011.2
20260507102820 11 26 1.6 1.6 0.00 0.56 0.18 89 1011.2
20260507101819 12 27 0.0 0.0 0.00 0.56 0.18 87 1011.2
20260507100818 12 27 0.0 4.8 0.00 0.56 0.18 86 1010.8
20260507095817 12 27 0.0 4.8 0.00 0.56 0.18 86 1011.2
20260507094816 12 37 0.0 0.0 0.00 0.56 0.18 86 1011.2
20260507093816 12 37 0.0 0.0 0.00 0.56 0.18 86 1010.8
20260507092816 12 37 0.0 0.0 0.00 0.56 0.18 86 1010.8
20260507091815 12 37 0.0 0.0 0.00 0.56 0.18 86 1011.2
20260507090814 12 37 0.0 0.0 0.00 0.56 0.18 86 1011.2
20260507085814 12 37 0.0 0.0 0.00 0.56 0.18 87 1010.8
20260507084813 12 37 0.0 0.0 0.00 0.56 0.18 87 1010.5
20260507083812 12 37 0.0 0.0 0.00 0.56 0.18 88 1010.5
20260507082811 12 37 0.0 0.0 0.00 0.56 0.18 88 1010.5
20260507081811 12 37 0.0 1.6 0.00 0.56 0.18 89 1010.2
20260507080810 12 330 0.0 1.6 0.00 0.56 0.18 89 1010.2
20260507075810 12 316 0.0 1.6 0.00 0.56 0.18 89 1010.2
20260507074738 12 316 0.0 3.2 0.00 0.56 0.18 89 1009.8
20260507073737 13 314 0.0 4.8 0.00 0.56 0.18 89 1009.8
20260507072736 13 305 1.6 6.4 0.00 0.56 0.18 86 1009.8
20260507071736 13 318 0.0 4.8 0.03 0.56 0.18 84 1009.8
20260507070704 13 339 0.0 0.0 0.03 0.56 0.18 83 1009.8
20260507065703 13 6 0.0 0.0 0.03 0.56 0.18 84 1009.5
20260507064703 13 6 0.0 0.0 0.03 0.56 0.18 84 1009.5
20260507063702 13 13 0.0 3.2 0.03 0.56 0.18 85 1009.5
20260507062701 13 67 1.6 3.2 0.03 0.56 0.18 86 1009.5
20260507061700 13 94 1.6 3.2 0.03 0.53 0.15 86 1009.5
20260507060700 13 353 1.6 1.6 0.08 0.53 0.15 87 1009.5
20260507055659 13 349 0.0 3.2 0.10 0.53 0.15 88 1009.8
20260507054658 14 306 1.6 4.8 0.13 0.53 0.15 88 1009.8
20260507053657 15 45 1.6 6.4 0.15 0.53 0.15 89 1009.5
20260507052626 15 75 1.6 4.8 0.15 0.53 0.15 89 1009.5
20260507051625 15 360 0.0 4.8 0.13 0.51 0.13 88 1009.8
20260507050625 16 72 3.2 3.2 0.08 0.46 0.08 88 1009.8
20260507045624 16 326 0.0 0.0 0.05 0.43 0.05 88 1009.5
20260507044623 16 328 0.0 0.0 0.03 0.41 0.03 87 1009.5
20260507043622 17 328 0.0 0.0 0.00 0.38 0.00 86 1009.8
20260507042622 17 329 0.0 0.0 0.00 0.38 0.00 86 1009.5
20260507041621 17 328 0.0 0.0 0.00 0.38 0.00 86 1009.1
20260507040620 17 328 0.0 0.0 0.00 0.38 0.00 86 1008.8
20260507035549 17 328 0.0 0.0 0.00 0.38 0.38 85 1008.8
20260507034548 17 299 0.0 0.0 0.00 0.38 0.38 85 1009.1
20260507033547 17 300 0.0 1.6 0.00 0.38 0.38 84 1009.1
20260507032547 17 321 0.0 3.2 0.00 0.38 0.38 86 1008.8
20260507031515 18 64 1.6 3.2 0.00 0.38 0.38 88 1008.8
20260507030514 18 314 0.0 4.8 0.00 0.38 0.38 87 1008.8
20260507025513 18 305 0.0 0.0 0.00 0.38 0.38 84 1008.5
20260507024513 18 284 0.0 0.0 0.00 0.38 0.38 84 1008.5
20260507023512 18 284 0.0 0.0 0.00 0.38 0.38 85 1008.1
20260507022440 18 284 0.0 0.0 0.00 0.38 0.38 85 1008.1
20260507021408 18 284 0.0 0.0 0.00 0.38 0.38 85 1008.1
20260507020336 18 284 0.0 0.0 0.00 0.38 0.38 86 1008.1
20260507015335 18 284 0.0 0.0 0.00 0.38 0.38 87 1007.8
20260507014334 18 284 0.0 0.0 0.00 0.38 0.38 87 1008.1
20260507013303 18 284 0.0 0.0 0.00 0.38 0.38 87 1008.5
20260507012231 18 284 0.0 0.0 0.00 0.38 0.38 87 1008.5
20260507011159 18 284 0.0 0.0 0.00 0.38 0.38 87 1008.5
20260507010159 18 284 0.0 0.0 0.00 0.38 0.38 88 1008.5
20260507005158 18 284 0.0 0.0 0.00 0.38 0.38 88 1008.1
20260507004127 18 284 0.0 0.0 0.00 0.38 0.38 88 1008.1
20260507003126 18 284 0.0 0.0 0.00 0.38 0.38 88 1008.1
20260507002125 18 284 0.0 0.0 0.00 0.38 0.38 88 1007.8
20260507001124 19 284 0.0 0.0 0.00 0.38 0.38 88 1008.1
20260507000124 19 284 0.0 0.0 0.00 0.38 0.38 87 1008.1
20260506235123 19 284 0.0 0.0 0.00 0.38 0.38 87 1007.8
20260506234122 20 284 0.0 0.0 0.00 0.38 0.38 87 1007.8
20260506233122 20 284 0.0 0.0 0.00 0.38 0.38 86 1007.5
20260506232121 20 284 0.0 0.0 0.00 0.38 0.38 86 1007.5
20260506231120 20 284 0.0 0.0 0.00 0.38 0.38 86 1007.5
20260506230119 20 284 0.0 1.6 0.00 0.38 0.38 86 1007.5
20260506225119 20 284 0.0 1.6 0.00 0.38 0.38 85 1007.5
20260506224118 20 284 1.6 1.6 0.00 0.38 0.38 85 1007.1
20260506223117 20 284 0.0 0.0 0.00 0.38 0.38 84 1007.5
20260506222117 20 284 0.0 1.6 0.00 0.38 0.38 84 1007.5
20260506221116 20 284 0.0 1.6 0.00 0.38 0.38 84 1007.5
20260506220115 20 271 0.0 0.0 0.00 0.38 0.38 84 1007.5
20260506215115 21 271 0.0 0.0 0.00 0.38 0.38 84 1007.5
20260506214114 21 319 0.0 0.0 0.00 0.38 0.38 84 1007.5
20260506213113 21 266 0.0 1.6 0.00 0.38 0.38 83 1007.1
20260506212112 21 266 0.0 1.6 0.00 0.38 0.38 83 1007.1
20260506211112 21 137 1.6 1.6 0.00 0.38 0.38 83 1007.1
20260506210111 21 190 0.0 1.6 0.00 0.38 0.38 83 1007.1
20260506205110 21 197 0.0 1.6 0.00 0.38 0.38 82 1006.8
20260506204110 21 236 0.0 0.0 0.00 0.38 0.38 82 1006.8
20260506203038 21 238 0.0 3.2 0.00 0.38 0.38 82 1006.8
20260506202037 21 259 1.6 3.2 0.00 0.38 0.38 81 1006.8
20260506201037 21 131 0.0 3.2 0.00 0.38 0.38 82 1006.8
20260506200036 21 131 1.6 3.2 0.00 0.38 0.38 82 1006.8
20260506195035 21 274 0.0 1.6 0.00 0.38 0.38 82 1006.8
20260506194034 21 77 0.0 1.6 0.00 0.38 0.38 82 1006.8
20260506193034 21 77 1.6 1.6 0.00 0.38 0.38 84 1006.8
20260506192033 20 276 0.0 1.6 0.00 0.38 0.38 84 1007.1
20260506191002 20 269 0.0 1.6 0.00 0.38 0.38 84 1007.1
20260506190001 20 276 0.0 1.6 0.00 0.38 0.38 86 1007.1
20260506185000 20 277 0.0 1.6 0.00 0.38 0.38 86 1007.5
20260506183959 20 229 0.0 4.8 0.00 0.38 0.38 86 1007.5
20260506182958 19 161 0.0 4.8 0.00 0.38 0.38 87 1007.5
20260506181957 18 260 0.0 3.2 0.00 0.38 0.38 88 1007.8
20260506180855 18 122 1.6 3.2 0.00 0.38 0.38 88 1007.8
20260506175854 18 259 1.6 4.8 0.00 0.38 0.38 87 1008.1
20260506174822 18 283 1.6 3.2 0.00 0.38 0.38 87 1008.1
20260506173750 18 290 1.6 3.2 0.00 0.38 0.38 86 1008.1
20260506172750 17 232 0.0 3.2 0.00 0.38 0.38 85 1008.1
20260506171749 17 129 1.6 1.6 0.00 0.38 0.38 83 1008.1
20260506170748 17 183 0.0 1.6 0.00 0.38 0.38 82 1008.1
20260506165748 17 314 0.0 1.6 0.00 0.38 0.38 80 1008.1
20260506164748 17 134 1.6 3.2 0.00 0.38 0.38 81 1008.5
20260506163716 17 290 0.0 4.8 0.03 0.38 0.38 81 1008.5
20260506162715 17 106 3.2 4.8 0.05 0.38 0.38 80 1008.5
20260506161714 17 277 1.6 1.6 0.05 0.38 0.38 80 1008.5
20260506160714 16 248 0.0 3.2 0.08 0.38 0.38 81 1008.5
20260506155713 16 287 0.0 4.8 0.08 0.38 0.38 81 1008.8
20260506154641 16 287 1.6 1.6 0.13 0.38 0.38 81 1008.8
20260506153641 16 287 0.0 1.6 0.20 0.36 0.36 82 1008.5
20260506152640 16 197 0.0 1.6 0.23 0.33 0.33 83 1008.8
20260506151639 16 231 0.0 1.6 0.25 0.33 0.33 83 1009.5
20260506150638 16 284 0.0 1.6 0.25 0.30 0.30 84 1009.5
20260506145637 16 256 0.0 1.6 0.28 0.30 0.30 85 1009.5
20260506144637 16 278 0.0 1.6 0.25 0.25 0.25 86 1009.5
20260506143636 16 278 0.0 1.6 0.15 0.15 0.15 87 1009.5
20260506142635 16 278 0.0 1.6 0.10 0.10 0.10 87 1009.5
20260506141634 17 280 1.6 1.6 0.08 0.08 0.08 88 1009.5